Location: Hradec Kralove
(50.2170°N, 15.8330°E)
Time: 04:50:30
(UTC+02:00)

TIGRISAT - Pass Details

Date: 07 August 2024
Orbit: 591 x 667 km, 97.7° (Epoch: 19 September)

Event Time Altitude Azimuth Distance (km) Brightness Sun altitude
Rises 04:06:00 0° 151° (SSE) 2,945 ? -12.2°
Maximum altitude 04:12:33 53° 71° (ENE) 781 ? -11.5°
Drops below altitude 10° 04:16:46 10° 355° (N) 1,995 ? -11.0°
Sets 04:18:58 0° 351° (N) 2,893 ? -10.7°
